Weather History for Morgantown, WV

Change the Weather History Date:

Monday, February 6, 2012

  Actual Average Record
Temperature  
Mean Temperature 37 °F 33 °F  
Max Temperature 49 °F 41 °F 69 °F (2008)
Min Temperature 24 °F 24 °F -1 °F (2007)
Degree Days  
Heating Degree Days 28 32  
Month to date heating degree days 152 196  
Since 1 July heating degree days 2667 3223  
Cooling Degree Days 0 0  
Month to date cooling degree days 0 0  
Year to date cooling degree days 0 0  
Moisture  
Dew Point 24 °F    
Average Humidity 64    
Maximum Humidity 92    
Minimum Humidity 36    
Precipitation  
Precipitation 0.00 in 0.09 in 1.41 in (1955)
Month to date precipitation 0.25 0.54  
Year to date precipitation 3.47 3.35  
Sea Level Pressure  
Sea Level Pressure 30.19 in    
Wind  
Wind Speed 2 mph (SW)    
Max Wind Speed 8 mph    
Max Gust Speed 13 mph    
Visibility 10 miles    
Events      
T = Trace of Precipitation, MM = Missing Value Source: NWS Daily Summary

Daily Weather History Graph

Daily Weather History Graph

Search for Another Location

Airport:

Trip Planner

Search our weather history database for the weather conditions in past years. The results will help you decide how hot, cold, wet, or windy it might be!

Date:

Astronomy

Feb. 06, 2012 Rise Set
Actual Time 7:22 AM EST 5:44 PM EST
Civil Twilight 6:54 AM EST 6:13 PM EST
Nautical Twilight 6:22 AM EST 6:45 PM EST
Astronomical Twilight 5:51 AM EST 7:16 PM EST
Moon 4:46 PM EST (2/6) 6:13 AM EST (2/6)
Length of Visible Light 11h 18m
Length of Day
10h 21m
Waxing Gibbous, 98% of the Moon is Illuminated
Feb 6
Waxing Gibbous
Feb 7
Full
Feb 14
Last Quarter
Feb 21
New
Feb 29
First Quarter

Hourly Weather History & Observations

Time (EST) Temp. Windchill Dew Point Humidity Pressure Visibility Wind Dir Wind Speed Gust Speed Precip Events Conditions
12:53 AM 30.0 °F - 25.0 °F 82% 30.25 in 10.0 mi Calm Calm - N/A   Clear
1:53 AM 27.0 °F 21.6 °F 24.1 °F 89% 30.25 in 7.0 mi South 4.6 mph - N/A   Clear
2:53 AM 27.0 °F - 23.0 °F 85% 30.25 in 10.0 mi Calm Calm - N/A   Clear
3:53 AM 27.0 °F - 24.1 °F 89% 30.25 in 10.0 mi Calm Calm - N/A   Clear
4:53 AM 24.1 °F 19.7 °F 21.9 °F 91% 30.25 in 8.0 mi SSW 3.5 mph - N/A   Clear
5:53 AM 25.0 °F - 21.9 °F 88% 30.24 in 8.0 mi Calm Calm - N/A   Clear
6:53 AM 24.1 °F - 21.9 °F 91% 30.25 in 9.0 mi Calm Calm - N/A   Clear
7:53 AM 25.0 °F - 21.9 °F 88% 30.25 in 7.0 mi Calm Calm - N/A   Clear
8:53 AM 28.9 °F - 26.1 °F 89% 30.26 in 8.0 mi Calm Calm - N/A   Clear
9:53 AM 35.1 °F 29.3 °F 28.9 °F 78% 30.26 in 10.0 mi SSW 6.9 mph - N/A   Clear
10:53 AM 39.9 °F 35.1 °F 28.9 °F 65% 30.25 in 10.0 mi Variable 6.9 mph - N/A   Clear
11:53 AM 43.0 °F 39.5 °F 26.1 °F 51% 30.22 in 10.0 mi WSW 5.8 mph - N/A   Clear
12:53 PM 44.1 °F 42.5 °F 23.0 °F 43% 30.19 in 10.0 mi Variable 3.5 mph - N/A   Clear
1:53 PM 45.0 °F 41.2 °F 24.1 °F 44% 30.15 in 10.0 mi SW 6.9 mph - N/A   Clear
2:53 PM 46.9 °F - 23.0 °F 39% 30.13 in 10.0 mi Variable 3.5 mph - N/A   Clear
3:53 PM 48.0 °F - 23.0 °F 37% 30.11 in 10.0 mi Calm Calm - N/A   Clear
4:53 PM 46.9 °F - 23.0 °F 39% 30.11 in 10.0 mi Variable 4.6 mph - N/A   Clear
5:53 PM 45.0 °F - 23.0 °F 42% 30.12 in 10.0 mi Calm Calm - N/A   Clear
6:53 PM 41.0 °F - 24.1 °F 51% 30.12 in 10.0 mi Calm Calm - N/A   Clear
7:53 PM 37.9 °F - 25.0 °F 60% 30.12 in 10.0 mi Calm Calm - N/A   Clear
8:53 PM 36.0 °F - 26.1 °F 67% 30.13 in 10.0 mi Calm Calm - N/A   Clear
9:53 PM 34.0 °F - 26.1 °F 73% 30.14 in 10.0 mi Calm Calm - N/A   Clear
10:53 PM 35.1 °F - 25.0 °F 67% 30.14 in 10.0 mi Calm Calm - N/A   Clear
11:53 PM 33.1 °F - 25.0 °F 72% 30.16 in 10.0 mi Calm Calm - N/A   Clear